{"data":{"norad_id":69715,"epoch":"2026-09-20T01:03:46.973952Z","epoch_age_seconds":61004,"freshness":"FRESH","line1":"1 69715U 26147M   26263.04429368  .00012863  00000+0  39998-3 0  9993","line2":"2 69715  97.2842 299.4047 0001417  93.5039 266.6366 15.33452403 14166","mean_motion":15.33452403,"eccentricity":0.0001417,"inclination_deg":97.2842,"raan_deg":299.4047,"arg_perigee_deg":93.5039,"mean_anomaly_deg":266.6366,"bstar":0.00039998,"rev_number":1416,"period_min":93.9057513088,"perigee_km":464.55140208756,"apogee_km":466.49089480683,"semimajor_km":6843.6581484472,"source":"CELESTRAK","updated_at":"2026-09-20T09:00:44.283043Z"}}